Regional Weather Roundup
Issued by NWS

Home | Current Version | Previous Version | Graphics & Text | Print | Product List | Glossary On
Versions: 1 2 3 4 5 6 7 8 9 10 11 12 13 14 15 16 17 18 19 20 21 22 23 24 25 26 27 28 29 30 31 32 33 34 35 36 37 38 39 40 41 42 43 44 45 46 47 48 49 50
000
ASUS43 KLOT 241509
RWRIL

ILLINOIS REGIONAL WEATHER ROUNDUP
NATIONAL WEATHER SERVICE CHICAGO/ROMEOVILLE IL
1000 AM CDT WED MAY 24 2017

NOTE: "FAIR" INDICATES FEW OR NO CLOUDS BELOW 12,000 FEET WITH NO
SIGNIFICANT WEATHER AND/OR OBSTRUCTIONS TO VISIBILITY.

* THESE STATIONS ARE NOT UNDER NWS QUALITY CONTROL. THEY ALSO MAY NOT
  REPORT WEATHER SUCH AS PRECIPITATION OR FOG.

ILZ001-002-007-009-015-016-024-241600-
NORTHWEST ILLINOIS

CITY           SKY/WX    TMP DP  RH WIND       PRES   REMARKS
MOLINE         CLOUDY    60  50  69 N8        29.60F
STERLING*      LGT RAIN  54  52  93 N10       29.62F
SAVANNA*       CLOUDY    55  50  84 N10       29.63S
$$

ILZ003-004-008-010-011-017-018-241600-
NORTH CENTRAL ILLINOIS

CITY           SKY/WX    TMP DP  RH WIND       PRES   REMARKS
ROCKFORD       CLOUDY    54  52  93 N9        29.64S FOG
FREEPORT*      RAIN      50  50  99 N6        29.65S
ROCHELLE*      CLOUDY    53  52  95 N12       29.61S FOG
DE KALB*       CLOUDY    56  54  90 NE13      29.60F
PERU*          CLOUDY    56  52  88 N9        29.59S
$$

ILZ005-006-012>014-019>023-241600-
NORTHEAST ILLINOIS

CITY           SKY/WX    TMP DP  RH WIND       PRES   REMARKS
CHICAGO-OHARE  CLOUDY    57  51  80 NE14      29.58S
CHICAGO-MIDWAY CLOUDY    56  52  86 N15       29.57S
AURORA         CLOUDY    59  54  83 NE14      29.58F
LANSING*       CLOUDY    55  54  97 N7        29.56F FOG
JOLIET*        CLOUDY    58  55  88 NE9       29.57S
WAUKEGAN       CLOUDY    54  52  93 N16G24    29.57F
DUPAGE AIRPORT CLOUDY    57  54  89 NE9G21    29.57F
KANKAKEE*      CLOUDY    58  55  91 CALM      29.56F
WHEELING       CLOUDY    56  53  90 NE14G22   29.59S
MORRIS*        CLOUDY    58  54  87 NE5       29.57S
ROMEOVILLE*    CLOUDY    56  55  94 NE17      29.56F
NORTHERLY ISL    N/A     52  49  89 N16         N/A
$$

LMZ740>746-241600-
SOUTHERN LAKE MICHIGAN

STATION/POSITION SKY/WX   TEMP    WIND        PRES    VSBY  WAVE
                          AIR SEA DIR/SP/G                  HT/PER
                          (F)     (DEG/KT/KT) (MB)    (MI)  (FT/S)
SOUTHERN BUOY              48 45   10/ 12/ 14 1002.8          2/ 3
WILMETTE HARBOR            49 52                N/A           3/ 4
HARRISON CRIB              52      20/ 20/ 22   N/A
BURNHAM HARBOR             52     350/ 11/ 15   N/A
CALUMET HARBOR             52     350/ 12/ 16 1001.0F
BURNS HARBOR               53      60/ 13/ 14 1001.4F
MICHIGAN CITY              53      30/ 13/ 14   N/A
MICHIGAN CITY 6N           52 53   30/ 12/ 16   N/A           3/ 4
ST. JOSEPH                 54 58   50/ 14/ 17 1000.9          3/ 3
$$

ILZ025>027-034>036-040-047-049-050-058-095>099-241600-
WEST-CENTRAL ILLINOIS

CITY           SKY/WX    TMP DP  RH WIND       PRES   REMARKS
QUINCY         MOSUNNY   56  51  84 NW7       29.61S
GALESBURG*     CLOUDY    56  52  87 N12       29.60S
MACOMB*        PTSUNNY   58  54  85 N14       29.62F
JACKSONVILLE*  PTSUNNY   59  53  80 NW13      29.59S
PITTSFIELD*    MOSUNNY   58  50  75 N8        29.61F
$$

ILZ028>032-037-038-041>044-048-051>054-059>061-241600-
CENTRAL ILLINOIS

CITY           SKY/WX    TMP DP  RH WIND       PRES   REMARKS
PONTIAC        CLOUDY    58  57  99 NW8       29.57F FOG
BLOOMINGTON    CLOUDY    56  52  86 N9        29.58S
DECATUR        PTSUNNY   60  53  77 N9        29.56F
PEORIA         PTSUNNY   62  54  74 N10       29.58S
LACON*         CLOUDY    58  54  87 N9        29.59R
LINCOLN*       CLOUDY    60  55  83 NW5       29.57F
SPRINGFIELD    PTSUNNY   59  54  83 N8        29.59R
TAYLORVILLE    CLOUDY    56  53  87 N8        29.57F
$$

ILZ033-039-045-046-055>057-062-063-241600-
EAST-CENTRAL ILLINOIS

CITY           SKY/WX    TMP DP  RH WIND       PRES   REMARKS
CHAMPAIGN      CLOUDY    57  53  86 N12       29.55S
RANTOUL*       DRIZZLE   58  57  96 N9        29.55S
MATTOON        LGT RAIN  57  57 100 NW9       29.54S
PARIS*         LGT RAIN  58  57  96 N6        29.54S
$$

ILZ079-100>102-241600-
SOUTHWEST ILLINOIS

CITY           SKY/WX    TMP DP  RH WIND       PRES   REMARKS
ALTON          MOSUNNY   59  48  67 N12       29.59S
BELLEVILLE     MOSUNNY   62  52  69 N12       29.58F
CAHOKIA*       PTSUNNY   63  49  60 NW13      29.58F
SPARTA*        MOSUNNY   61  49  66 NW13      29.58S
$$

ILZ064>066-069>071-074>076-080>082-084>086-088>090-092>094-241600-
SOUTH-CENTRAL ILLINOIS

CITY           SKY/WX    TMP DP  RH WIND       PRES   REMARKS
CARBONDALE     NOT AVBL
CAIRO*         CLOUDY    61  55  80 NW10      29.55S
EFFINGHAM*     CLOUDY    58  55  91 NW9       29.57F
MARION         PTSUNNY   61  57  88 N9        29.56S
MT. VERNON       N/A     58  53  84 VRB6      29.55F
CENTRALIA*     CLOUDY    61  54  77 NW12G17   29.55F
SALEM*         CLOUDY    60  54  80 NW9       29.56S
$$

ILZ067-068-072-073-078-083-087-091-241600-
SOUTHEAST ILLINOIS

CITY           SKY/WX    TMP DP  RH WIND       PRES   REMARKS
LAWRENCEVILLE  RAIN      59  32  36 N8        29.52F
FLORA*         CLOUDY    60  54  80 N12       29.55S
FAIRFIELD*     CLOUDY    58  56  91 NW5       29.53S
HARRISBURG*    CLOUDY    60  56  89 NW9       29.54F
ROBINSON*      LGT RAIN  58  56  95 NW8       29.53F
CARMI*         LGT RAIN  58  57  96 NW7       29.52F
$$

ABBREVIATIONS USED IN REMARKS
   TC - TEMPERATURE IN CELSIUS
  WCI - WIND CHILL INDEX
   HX - HEAT INDEX
  VSB - VISIBILITY
$$





USA.gov is the U.S. government's official web portal to all federal, state and local government web resources and services.